VLG83BQ LEBB-LIMC

Flight info

Callsign VLG83BQ
Flight time 1h 16m
Altitude 30000
Route PPN DCT LATEK/N0451F380 DCT GONUP DCT TOU DCT GAI DCT MEN DCT NINUN DCT LATAM DCT ROMAM/N0450F390 DCT ETIDO DCT NEDRU DCT RILIP DCT EMMEF DCT LAPRI/N0450F380 DCT MOGBO/N0451F370 DCT KODOK/N0391F190 M730 TOP M135 ASTIG
Aircraft A320/M-SDE3FGHIRWY/LB1

Departure

Time 2026-05-07 14:26
Airport Bilbao Airport (LEBB)

Arrival

Time 2026-05-07 15:43
Airport Milan Malpensa International Airport (LIMC)
Time Latitude Longitude Altitude Speed Heading
2026-05-07 13:58 43.30427 -2.90632 155 ft 0 kts 26°
2026-05-07 14:16 43.30427 -2.90633 127 ft 1 kts 26°
2026-05-07 14:16 43.30409 -2.90644 123 ft 3 kts 22°
2026-05-07 14:17 43.30390 -2.90653 123 ft 3 kts 13°
2026-05-07 14:17 43.30371 -2.90658 125 ft 3 kts 354°
2026-05-07 14:17 43.30354 -2.90651 124 ft 3 kts 310°
2026-05-07 14:17 43.30350 -2.90644 124 ft 0 kts 297°
2026-05-07 14:20 43.30351 -2.90647 124 ft 2 kts 297°
2026-05-07 14:20 43.30372 -2.90704 123 ft 11 kts 297°
2026-05-07 14:21 43.30407 -2.90830 127 ft 18 kts 272°
2026-05-07 14:21 43.30384 -2.90986 125 ft 12 kts 211°
2026-05-07 14:21 43.30307 -2.91059 126 ft 17 kts 254°
2026-05-07 14:21 43.30360 -2.91237 125 ft 24 kts 296°
2026-05-07 14:22 43.30446 -2.91471 127 ft 29 kts 297°
2026-05-07 14:22 43.30536 -2.91712 127 ft 27 kts 297°
2026-05-07 14:22 43.30622 -2.91945 127 ft 27 kts 295°
2026-05-07 14:22 43.30677 -2.92102 124 ft 27 kts 296°
2026-05-07 14:23 43.30756 -2.92323 126 ft 20 kts 297°
2026-05-07 14:23 43.30798 -2.92437 128 ft 1 kts 289°
2026-05-07 14:23 43.30799 -2.92443 125 ft 2 kts 286°
2026-05-07 14:23 43.30777 -2.92499 126 ft 9 kts 201°
2026-05-07 14:24 43.30725 -2.92491 124 ft 7 kts 161°
2026-05-07 14:24 43.30680 -2.92471 124 ft 7 kts 161°
2026-05-07 14:24 43.30638 -2.92452 126 ft 6 kts 161°
2026-05-07 14:24 43.30612 -2.92422 124 ft 5 kts 120°
2026-05-07 14:25 43.30611 -2.92421 124 ft 0 kts 120°
2026-05-07 14:25 43.30584 -2.92353 125 ft 31 kts 119°
2026-05-07 14:26 43.30366 -2.91755 125 ft 105 kts 116°
2026-05-07 14:26 43.29972 -2.90626 252 ft 145 kts 114°
2026-05-07 14:26 43.29541 -2.89373 906 ft 147 kts 113°
2026-05-07 14:26 43.29101 -2.88077 1563 ft 154 kts 115°
2026-05-07 14:27 43.28585 -2.86683 1993 ft 176 kts 117°
2026-05-07 14:27 43.27981 -2.85095 2428 ft 199 kts 117°
2026-05-07 14:27 43.27322 -2.83358 3038 ft 209 kts 117°
2026-05-07 14:27 43.26643 -2.81550 3790 ft 215 kts 119°
2026-05-07 14:28 43.25967 -2.79733 4783 ft 215 kts 119°
2026-05-07 14:28 43.25277 -2.77883 5616 ft 220 kts 119°
2026-05-07 14:28 43.24665 -2.75970 6393 ft 227 kts 105°
2026-05-07 14:28 43.24684 -2.73750 7151 ft 237 kts 75°
2026-05-07 14:29 43.25522 -2.71773 7912 ft 247 kts 46°
2026-05-07 14:29 43.26785 -2.70193 8699 ft 251 kts 42°
2026-05-07 14:29 43.28028 -2.68424 9245 ft 268 kts 59°
2026-05-07 14:29 43.28659 -2.65951 9619 ft 286 kts 86°
2026-05-07 14:30 43.28843 -2.63160 10104 ft 304 kts 88°
2026-05-07 14:30 43.29026 -2.60147 10389 ft 328 kts 86°
2026-05-07 14:30 43.29223 -2.56913 10615 ft 352 kts 87°
2026-05-07 14:30 43.29438 -2.53491 11124 ft 366 kts 87°
2026-05-07 14:31 43.29666 -2.49988 11700 ft 371 kts 86°
2026-05-07 14:31 43.30223 -2.46522 11868 ft 375 kts 71°
2026-05-07 14:31 43.31176 -2.43172 11908 ft 375 kts 69°
2026-05-07 14:31 43.32153 -2.39851 11963 ft 377 kts 69°
2026-05-07 14:32 43.33153 -2.36494 12718 ft 381 kts 69°
2026-05-07 14:32 43.34159 -2.33123 13541 ft 383 kts 69°
2026-05-07 14:32 43.35171 -2.29703 14195 ft 388 kts 69°
2026-05-07 14:32 43.36187 -2.26253 14857 ft 391 kts 69°
2026-05-07 14:33 43.37214 -2.22757 15502 ft 396 kts 69°
2026-05-07 14:33 43.38236 -2.19275 16148 ft 399 kts 69°
2026-05-07 14:33 43.39292 -2.15673 16805 ft 403 kts 69°
2026-05-07 14:33 43.40342 -2.12080 17452 ft 407 kts 69°
2026-05-07 14:34 43.41400 -2.08448 18107 ft 411 kts 69°
2026-05-07 14:34 43.42467 -2.04777 18672 ft 415 kts 69°
2026-05-07 14:34 43.43540 -2.01078 19226 ft 419 kts 69°
2026-05-07 14:34 43.44623 -1.97341 19795 ft 422 kts 70°
2026-05-07 14:35 43.45715 -1.93575 20345 ft 425 kts 70°
2026-05-07 14:35 43.46815 -1.89780 20876 ft 428 kts 70°
2026-05-07 14:35 43.47920 -1.85963 21403 ft 431 kts 70°
2026-05-07 14:35 43.49029 -1.82122 21911 ft 434 kts 70°
2026-05-07 14:36 43.50148 -1.78244 22413 ft 437 kts 70°
2026-05-07 14:36 43.51270 -1.74340 22910 ft 440 kts 70°
2026-05-07 14:36 43.52398 -1.70406 23424 ft 443 kts 70°
2026-05-07 14:36 43.53534 -1.66443 23838 ft 446 kts 70°
2026-05-07 14:37 43.54677 -1.62448 24257 ft 449 kts 71°
2026-05-07 14:37 43.56984 -1.54382 25066 ft 455 kts 71°
2026-05-07 14:37 43.58131 -1.50358 25398 ft 457 kts 70°
2026-05-07 14:38 43.59294 -1.46260 25722 ft 460 kts 71°
2026-05-07 14:38 43.60475 -1.42087 26082 ft 463 kts 71°
2026-05-07 14:38 43.61635 -1.37989 26392 ft 465 kts 71°
2026-05-07 14:38 43.62814 -1.33826 26718 ft 467 kts 71°
2026-05-07 14:39 43.64000 -1.29634 27023 ft 470 kts 71°
2026-05-07 14:39 43.65191 -1.25423 27321 ft 472 kts 71°
2026-05-07 14:39 43.66388 -1.21185 27644 ft 475 kts 71°
2026-05-07 14:39 43.67588 -1.16928 28023 ft 477 kts 71°
2026-05-07 14:40 43.68790 -1.12649 28309 ft 479 kts 71°
2026-05-07 14:40 43.69996 -1.08341 28562 ft 482 kts 71°
2026-05-07 14:40 43.71211 -1.03997 28800 ft 484 kts 71°
2026-05-07 14:40 43.72424 -0.99659 29019 ft 486 kts 71°
2026-05-07 14:41 43.73645 -0.95281 29291 ft 486 kts 71°
2026-05-07 14:41 43.74858 -0.90926 29640 ft 485 kts 71°
2026-05-07 14:41 43.76071 -0.86563 29909 ft 485 kts 71°
2026-05-07 14:41 43.77276 -0.82216 29951 ft 481 kts 71°
2026-05-07 14:42 43.79658 -0.73592 29946 ft 480 kts 71°
2026-05-07 14:42 43.82035 -0.64963 29948 ft 480 kts 72°
2026-05-07 14:43 43.84397 -0.56352 29946 ft 480 kts 71°
2026-05-07 14:43 43.86767 -0.47698 29946 ft 480 kts 72°
2026-05-07 14:44 43.89127 -0.39038 29940 ft 480 kts 72°
2026-05-07 14:44 43.91476 -0.30378 29945 ft 480 kts 72°
2026-05-07 14:45 43.93825 -0.21717 29947 ft 479 kts 72°
2026-05-07 14:45 43.96167 -0.13038 29951 ft 480 kts 72°
2026-05-07 14:46 43.98493 -0.04362 29962 ft 480 kts 72°
2026-05-07 14:46 44.00826 0.04337 29952 ft 480 kts 72°
2026-05-07 14:47 44.03148 0.13035 29960 ft 480 kts 72°
2026-05-07 14:47 44.05449 0.21680 29960 ft 480 kts 72°
2026-05-07 14:48 44.07778 0.30454 29961 ft 480 kts 72°
2026-05-07 14:48 44.10067 0.39117 29951 ft 480 kts 72°
2026-05-07 14:49 44.12372 0.47906 29952 ft 481 kts 72°
2026-05-07 14:49 44.14654 0.56658 29954 ft 481 kts 72°
2026-05-07 14:50 44.16927 0.65356 29955 ft 481 kts 72°
2026-05-07 14:50 44.19215 0.74124 29958 ft 481 kts 72°
2026-05-07 14:51 44.21488 0.82886 29949 ft 481 kts 72°
2026-05-07 14:51 44.23758 0.91674 29962 ft 483 kts 72°
2026-05-07 14:52 44.26027 1.00505 29962 ft 482 kts 72°
2026-05-07 14:52 44.28281 1.09318 29963 ft 482 kts 72°
2026-05-07 14:53 44.30534 1.18154 29954 ft 483 kts 72°
2026-05-07 14:53 44.32782 1.26996 29959 ft 483 kts 72°
2026-05-07 14:54 44.35023 1.35851 29960 ft 484 kts 72°
2026-05-07 14:54 44.37266 1.44727 29961 ft 484 kts 72°
2026-05-07 14:55 44.39499 1.53594 29950 ft 484 kts 72°
2026-05-07 14:55 44.41720 1.62488 29972 ft 484 kts 72°
2026-05-07 14:56 44.43936 1.71390 29966 ft 485 kts 72°
2026-05-07 14:56 44.46154 1.80311 29971 ft 485 kts 72°
2026-05-07 14:57 44.48363 1.89228 29967 ft 485 kts 72°
2026-05-07 14:57 44.50570 1.98168 29957 ft 486 kts 72°
2026-05-07 14:58 44.52770 2.07133 29966 ft 486 kts 72°
2026-05-07 14:58 44.54962 2.16108 29976 ft 487 kts 73°
2026-05-07 14:59 44.57149 2.25093 29979 ft 487 kts 73°
2026-05-07 14:59 44.59329 2.34082 29984 ft 487 kts 72°
2026-05-07 15:00 44.61141 2.41550 29984 ft 487 kts 72°
2026-05-07 15:00 44.63667 2.52013 29980 ft 487 kts 73°
2026-05-07 15:01 44.65822 2.61027 29984 ft 487 kts 73°
2026-05-07 15:01 44.67624 2.68596 29970 ft 487 kts 73°
2026-05-07 15:02 44.69769 2.77617 29967 ft 487 kts 73°
2026-05-07 15:02 44.71912 2.86647 29969 ft 487 kts 73°
2026-05-07 15:03 44.74058 2.95700 29971 ft 488 kts 73°
2026-05-07 15:03 44.76176 3.04701 29973 ft 488 kts 73°
2026-05-07 15:04 44.78302 3.13796 29963 ft 489 kts 73°
2026-05-07 15:04 44.80420 3.22897 29967 ft 489 kts 73°
2026-05-07 15:05 44.82534 3.32009 29971 ft 490 kts 73°
2026-05-07 15:05 44.84644 3.41137 29974 ft 490 kts 73°
2026-05-07 15:06 44.86752 3.50271 29974 ft 489 kts 73°
2026-05-07 15:06 44.88853 3.59404 29970 ft 489 kts 73°
2026-05-07 15:07 44.90933 3.68547 29969 ft 489 kts 73°
2026-05-07 15:07 44.92032 3.73393 29970 ft 490 kts 73°
2026-05-07 15:08 44.93129 3.78214 29973 ft 489 kts 73°
2026-05-07 15:08 44.95207 3.87361 29970 ft 489 kts 73°
2026-05-07 15:09 44.97265 3.96499 29966 ft 488 kts 73°
2026-05-07 15:09 44.99322 4.05651 29969 ft 488 kts 73°
2026-05-07 15:10 45.01347 4.14750 29977 ft 488 kts 73°
2026-05-07 15:10 45.03271 4.23946 29966 ft 487 kts 79°
2026-05-07 15:11 45.04135 4.33494 29967 ft 487 kts 85°
2026-05-07 15:11 45.04863 4.42954 29968 ft 487 kts 85°
2026-05-07 15:12 45.05591 4.52480 29972 ft 488 kts 85°
2026-05-07 15:12 45.06318 4.62024 29962 ft 488 kts 86°
2026-05-07 15:13 45.07030 4.71567 29970 ft 488 kts 85°
2026-05-07 15:13 45.07737 4.81129 29967 ft 488 kts 85°
2026-05-07 15:14 45.08439 4.90692 29966 ft 489 kts 86°
2026-05-07 15:14 45.09132 5.00273 29969 ft 489 kts 85°
2026-05-07 15:15 45.09811 5.09855 29969 ft 490 kts 85°
2026-05-07 15:15 45.10132 5.19471 29968 ft 488 kts 96°
2026-05-07 15:16 45.09695 5.29064 29976 ft 488 kts 96°
2026-05-07 15:16 45.09271 5.38651 29965 ft 488 kts 95°
2026-05-07 15:17 45.08872 5.48188 29966 ft 489 kts 95°
2026-05-07 15:17 45.08522 5.57808 29962 ft 489 kts 95°
2026-05-07 15:18 45.08170 5.67431 29961 ft 489 kts 95°
2026-05-07 15:18 45.07786 5.77046 29960 ft 490 kts 95°
2026-05-07 15:19 45.07342 5.86664 29957 ft 490 kts 97°
2026-05-07 15:19 45.06698 5.96259 29957 ft 490 kts 98°
2026-05-07 15:20 45.05988 6.05843 29953 ft 490 kts 98°
2026-05-07 15:20 45.05312 6.15433 29949 ft 491 kts 97°
2026-05-07 15:21 45.04657 6.25060 29943 ft 491 kts 97°
2026-05-07 15:21 45.03991 6.34694 29943 ft 492 kts 97°
2026-05-07 15:22 45.03304 6.44328 29942 ft 492 kts 97°
2026-05-07 15:22 45.02615 6.53968 29916 ft 493 kts 98°
2026-05-07 15:23 45.01907 6.63604 29937 ft 493 kts 98°
2026-05-07 15:23 45.01197 6.73245 29944 ft 493 kts 98°
2026-05-07 15:24 45.00498 6.82893 29954 ft 493 kts 98°
2026-05-07 15:24 44.99793 6.92544 29961 ft 494 kts 98°
2026-05-07 15:25 44.99079 7.02209 29961 ft 495 kts 98°
2026-05-07 15:25 44.98341 7.11878 29967 ft 495 kts 98°
2026-05-07 15:26 44.98060 7.21611 29968 ft 498 kts 91°
2026-05-07 15:26 44.98129 7.31404 29579 ft 498 kts 91°
2026-05-07 15:27 44.98155 7.36291 29286 ft 498 kts 91°
2026-05-07 15:27 44.98018 7.41110 28923 ft 495 kts 97°
2026-05-07 15:27 44.97474 7.45891 27640 ft 495 kts 104°
2026-05-07 15:27 44.96758 7.50675 26267 ft 499 kts 103°
2026-05-07 15:28 44.96408 7.55530 25363 ft 496 kts 89°
2026-05-07 15:28 44.96856 7.60333 24999 ft 491 kts 76°
2026-05-07 15:28 44.98047 7.64803 24639 ft 485 kts 61°
2026-05-07 15:28 44.99684 7.68976 24276 ft 483 kts 59°
2026-05-07 15:29 45.01342 7.73080 24038 ft 480 kts 59°
2026-05-07 15:29 45.03011 7.77163 23817 ft 480 kts 58°
2026-05-07 15:29 45.04688 7.81254 22465 ft 483 kts 59°
2026-05-07 15:29 45.06366 7.85362 21375 ft 480 kts 59°
2026-05-07 15:30 45.08021 7.89441 20473 ft 473 kts 59°
2026-05-07 15:30 45.09627 7.93426 19191 ft 459 kts 59°
2026-05-07 15:30 45.11181 7.97299 18332 ft 442 kts 59°
2026-05-07 15:30 45.12662 8.01003 16986 ft 428 kts 59°
2026-05-07 15:31 45.14139 8.04692 15303 ft 431 kts 59°
2026-05-07 15:31 45.15612 8.08369 13912 ft 425 kts 60°
2026-05-07 15:31 45.17057 8.11976 12510 ft 416 kts 59°
2026-05-07 15:31 45.18451 8.15461 11217 ft 406 kts 59°
2026-05-07 15:32 45.19808 8.18860 10544 ft 382 kts 59°
2026-05-07 15:32 45.21061 8.22007 10235 ft 351 kts 59°
2026-05-07 15:32 45.22215 8.24910 10067 ft 322 kts 59°
2026-05-07 15:32 45.23274 8.27575 9758 ft 302 kts 59°
2026-05-07 15:33 45.24287 8.30124 9603 ft 294 kts 59°
2026-05-07 15:33 45.25291 8.32648 9468 ft 293 kts 59°
2026-05-07 15:33 45.26295 8.35171 9266 ft 292 kts 59°
2026-05-07 15:33 45.27290 8.37680 8975 ft 291 kts 59°
2026-05-07 15:34 45.28280 8.40171 8663 ft 288 kts 59°
2026-05-07 15:34 45.29260 8.42633 8363 ft 286 kts 59°
2026-05-07 15:34 45.30237 8.45090 8070 ft 284 kts 60°
2026-05-07 15:34 45.31196 8.47518 7776 ft 279 kts 60°
2026-05-07 15:35 45.32144 8.49924 7294 ft 280 kts 60°
2026-05-07 15:35 45.33090 8.52327 6790 ft 277 kts 60°
2026-05-07 15:35 45.34020 8.54683 6314 ft 267 kts 61°
2026-05-07 15:35 45.34919 8.56962 5696 ft 263 kts 61°
2026-05-07 15:36 45.35804 8.59215 5064 ft 259 kts 62°
2026-05-07 15:36 45.36678 8.61441 4426 ft 256 kts 62°
2026-05-07 15:36 45.37540 8.63638 3868 ft 250 kts 62°
2026-05-07 15:36 45.38358 8.65723 3738 ft 237 kts 62°
2026-05-07 15:37 45.39154 8.67757 3607 ft 235 kts 62°
2026-05-07 15:37 45.39937 8.69761 3496 ft 235 kts 62°
2026-05-07 15:37 45.40745 8.71826 3366 ft 234 kts 61°
2026-05-07 15:37 45.41535 8.73848 3240 ft 234 kts 61°
2026-05-07 15:38 45.42345 8.75860 3132 ft 234 kts 55°
2026-05-07 15:38 45.43519 8.77433 3003 ft 233 kts 29°
2026-05-07 15:38 45.45053 8.78111 3003 ft 231 kts
2026-05-07 15:38 45.46074 8.78020 3001 ft 214 kts 349°
2026-05-07 15:39 45.47479 8.77632 2997 ft 200 kts 348°
2026-05-07 15:39 45.48827 8.77260 3003 ft 195 kts 349°
2026-05-07 15:39 45.50142 8.76898 2991 ft 187 kts 349°
2026-05-07 15:39 45.51356 8.76564 2746 ft 168 kts 349°
2026-05-07 15:40 45.52470 8.76258 2538 ft 158 kts 349°
2026-05-07 15:40 45.53538 8.75964 2348 ft 153 kts 349°
2026-05-07 15:40 45.54540 8.75689 2152 ft 145 kts 349°
2026-05-07 15:40 45.55525 8.75418 1958 ft 141 kts 349°
2026-05-07 15:41 45.56478 8.75155 1765 ft 140 kts 349°
2026-05-07 15:41 45.57420 8.74896 1583 ft 139 kts 348°
2026-05-07 15:41 45.58370 8.74634 1389 ft 139 kts 348°
2026-05-07 15:41 45.59313 8.74374 1213 ft 138 kts 348°
2026-05-07 15:42 45.60257 8.74114 1038 ft 139 kts 348°
2026-05-07 15:42 45.61207 8.73855 878 ft 139 kts 348°
2026-05-07 15:42 45.62144 8.73599 756 ft 130 kts 349°
2026-05-07 15:42 45.62907 8.73381 743 ft 89 kts 349°
2026-05-07 15:43 45.63355 8.73252 743 ft 41 kts 349°
2026-05-07 15:43 45.63600 8.73167 747 ft 32 kts 339°
2026-05-07 15:43 45.63761 8.73003 747 ft 23 kts 311°
2026-05-07 15:43 45.63850 8.72842 750 ft 16 kts 305°
2026-05-07 15:44 45.63917 8.72698 748 ft 18 kts 303°
2026-05-07 15:44 45.64006 8.72556 752 ft 22 kts 329°
2026-05-07 15:44 45.64152 8.72499 752 ft 24 kts 349°
2026-05-07 15:44 45.64294 8.72459 751 ft 22 kts 348°
2026-05-07 15:45 45.64437 8.72431 752 ft 15 kts
2026-05-07 15:45 45.64522 8.72415 751 ft 10 kts 348°
2026-05-07 15:45 45.64538 8.72410 750 ft 0 kts 349°